Погода в Рахье

Россия / Санкт-Петербург и Ленинградская область     60°05′34″N   30°50′25″E
В апреле 2022 года жителям России запретили посещать сайт meteo.paraplan.net по решению Генеральной прокуратуры. Аудитория сайта уменьшилась в 10 раз. Владельцы сайта не видят смысла в поддержке погодного сервера в таких условиях. Сайт будет закрыт в октябре.
темп.,
°C
ветер,
м/с
пор.,
м/с
влажн.,
%
обл.,
%
осадки,
мм/ч
давл.,
гПа
погр.,
м
4 октября, вт
вт400:00+8св61295100 8.6 999823
03:00+9вюв31097100 9.9 998741
06:00+5всв279480 0.1 1001194
09:00+7всв379194 0.1 1001427
12:00+8вюв389091 0.8 1002628
15:00+8всв2694100 0.9 1004365
18:00+7св2397100 0.3 1005172
21:00+7св1397100 0.8 1006141
5 октября, ср
ср500:00+6ю119660 0.0 100724
03:00+6ююз229639 0.0 100846
06:00+6ююз1395100 0.2 1009121
09:00+7ю2694100 0.6 1010213
12:00+8ююз2595100 0.1 1010248
15:00+9з3686100 0.1 1011588
18:00+7ююв228672 0.0 101232
21:00+5ю249596 0.0 101286
6 октября, чт
чт600:00+7ююв3893100 0.0 1012242
03:00+8ю31093100 0.0 1011306
06:00+9ю41197100 0.0 1009383
09:00+10ю51396100 0.1 1007516
12:00+13ююз5138454 0.0 1006713
15:00+15юз51076100 0.0 10051116
18:00+13юз51293100 2.1 1004934
21:00+11зюз61485100 3.7 10061080
7 октября, пт
пт700:00+10зюз6148495 0.1 10081078
03:00+11зюз71579100 0.1 10081328
06:00+10зюз6148383 0.3 10091225
09:00+11з7158162 1.4 10101368
12:00+12зюз8157733 0.2 10121436
15:00+12зюз715732 0.3 10131415
18:00+11зюз5137745 0.1 10141062
21:00+10юз5138366 0.1 1015655
8 октября, сб
сб800:00+11юз51383100 0.0 1014828
03:00+12юз5128078 0.0 1013929
06:00+9ююз5138189 0.0 1012774
09:00+9ююз5147778 0.0 1010786
12:00+12ююз61468100 0.0 1008939
15:00+13ююз61366100 0.0 10051283
18:00+12ююз7147295 0.0 10041151
21:00+11юз51183100 0.9 1004826